This is the latest recevied weather packets stored in our database for station/object KC9GSD. If no packets are shown the sender has not sent any weather packets the latest 10 day(s).
| Time | Temp. | Humidity | Pressure | Rain* | Wind** | Luminosity | Snow |
|---|---|---|---|---|---|---|---|
| 1777769757 | 12.22° C | 64% | 1015.8 hPa | 0 mm | - | 0 W/m² | - |
| 1777769454 | 12.22° C | 67% | 1015.7 hPa | 0 mm | - | 0 W/m² | - |
| 1777769150 | 12.22° C | 63% | 1015.5 hPa | 0 mm | - | 0 W/m² | - |
| 1777768849 | 12.78° C | 59% | 1015.6 hPa | 0 mm | - | 1 W/m² | - |
| 1777768545 | 12.78° C | 63% | 1015.5 hPa | 0 mm | - | 1 W/m² | - |
| 1777768242 | 12.78° C | 59% | 1015.4 hPa | 0 mm | - | 2 W/m² | - |
| 1777767939 | 12.78° C | 59% | 1015.4 hPa | 0 mm | - | 4 W/m² | - |
| 1777767636 | 13.33° C | 59% | 1015.3 hPa | 0 mm | - | 6 W/m² | - |
| 1777767332 | 13.89° C | 56% | 1015.3 hPa | 0 mm | - | 8 W/m² | - |
| 1777767030 | 14.44° C | 55% | 1015.4 hPa | 0 mm | - | 11 W/m² | - |
| 1777766727 | 15° C | 51% | 1015.4 hPa | 0 mm | - | 13 W/m² | - |
| 1777766424 | 15.56° C | 48% | 1015.1 hPa | 0 mm | - | 16 W/m² | - |
| 1777766120 | 15.56° C | 48% | 1015.1 hPa | 0 mm | - | 18 W/m² | - |
| 1777765819 | 16.11° C | 44% | 1015 hPa | 0 mm | - | 24 W/m² | - |
| 1777765514 | 16.11° C | 42% | 1014.9 hPa | 0 mm | - | 32 W/m² | - |
| 1777765212 | 16.11° C | 44% | 1014.9 hPa | 0 mm | - | 32 W/m² | - |
| 1777764912 | 16.67° C | 45% | 1014.9 hPa | 0 mm | - | 29 W/m² | - |
| 1777764610 | 16.67° C | 45% | 1014.9 hPa | 0 mm | - | 30 W/m² | - |
| 1777764306 | 16.67° C | 40% | 1014.8 hPa | 0 mm | - | 32 W/m² | - |
| 1777764003 | 16.67° C | 40% | 1014.8 hPa | 0 mm | - | 34 W/m² | - |
| 1777763700 | 16.67° C | 41% | 1014.9 hPa | 0 mm | - | 36 W/m² | - |
| 1777763398 | 16.67° C | 42% | 1014.9 hPa | 0 mm | - | 37 W/m² | - |
| 1777763096 | 16.67° C | 39% | 1014.8 hPa | 0 mm | - | 37 W/m² | - |
| 1777762794 | 17.22° C | 39% | 1014.9 hPa | 0 mm | - | 39 W/m² | - |
| 1777762489 | 17.22° C | 43% | 1014.8 hPa | 0 mm | - | 43 W/m² | - |
* Rain latest hour (hover to see other rain measurements)
** Current wind speed in m/s (hover to see current wind gust speed)